Weather History for KIPJ - November, 2013

Change the Weather History Date:

Sunday, November 10, 2013

  Actual Average (KCLT) Record (KCLT)
Temperature  
Mean Temperature 52 °F 53 °F  
Max Temperature 71 °F 64 °F 83 °F (2006)
Min Temperature 33 °F 41 °F 28 °F (1973)
Degree Days  
Heating Degree Days 13 13  
Month to date heating degree days 113  
Since 1 July heating degree days 319  
Cooling Degree Days 0 0  
Month to date cooling degree days 0  
Year to date cooling degree days 1513  
Growing Degree Days 2 (Base 50)    
Moisture  
Dew Point 30 °F    
Average Humidity 54    
Maximum Humidity 100    
Minimum Humidity 15    
Precipitation  
Precipitation 0.00 in 0.10 in 1.43 in (2009)
Month to date precipitation 1.01  
Year to date precipitation 36.25  
Snow  
Snow 0.00 in 0.00 in T in (1955)
Month to date snowfall 0.0  
Since 1 July snowfall 0.0  
Since 1 September snowfall 0.0  
Snow Depth -    
Sea Level Pressure  
Sea Level Pressure 30.19 in    
Wind  
Wind Speed 2 mph (WNW)    
Max Wind Speed 13 mph    
Max Gust Speed 23 mph    
Visibility 10 miles    
Events      
T = Trace of Precipitation, MM = Missing Value Source: NWS Daily Summary

Daily Weather History Graph

Daily Weather History Graph

Search for Another Location

Airport or City:

Trip Planner

Search our weather history database for the weather conditions in past years. The results will help you decide how hot, cold, wet, or windy it might be!

Date:

Astronomy

Nov. 10, 2013 Rise Set
Actual Time 6:55 AM EST 5:21 PM EST
Civil Twilight 6:28 AM EST 5:48 PM EST
Nautical Twilight 5:57 AM EST 6:18 PM EST
Astronomical Twilight 5:27 AM EST 6:48 PM EST
Moon 1:12 PM EST (11/10) No Moon Set
Length of Visible Light 11h 19m
Length of Day
10h 26m
First Quarter, 55% of the Moon is Illuminated
Nov 10
First Quarter
Nov 17
Full
Nov 25
Last Quarter
Dec 2
New
Dec 9
First Quarter

Hourly Weather History & Observations

Time (EST) Temp. Windchill Dew Point Humidity Pressure Visibility Wind Dir Wind Speed Gust Speed Precip Events Conditions
12:15 AM 37.4 °F - 33.8 °F 87% 30.20 in 10.0 mi Calm Calm - N/A   Clear
12:36 AM 37.4 °F - 33.8 °F 87% 30.20 in 10.0 mi Calm Calm - N/A   Clear
12:55 AM 37.4 °F - 33.8 °F 87% 30.19 in 10.0 mi Calm Calm - N/A   Clear
1:15 AM 37.4 °F - 33.8 °F 87% 30.18 in 10.0 mi Calm Calm - N/A   Clear
1:35 AM 39.2 °F 37.0 °F 33.8 °F 81% 30.18 in 10.0 mi SW 3.5 mph - N/A   Clear
1:55 AM 37.4 °F - 33.8 °F 87% 30.18 in 10.0 mi Calm Calm - N/A   Clear
2:15 AM 37.4 °F - 33.8 °F 87% 30.18 in 10.0 mi Calm Calm - N/A   Clear
2:37 AM 37.4 °F - 33.8 °F 87% 30.18 in 10.0 mi Calm Calm - N/A   Clear
2:55 AM 35.6 °F - 33.8 °F 93% 30.18 in 10.0 mi Calm Calm - N/A   Clear
3:15 AM 35.6 °F - 33.8 °F 93% 30.18 in 10.0 mi Calm Calm - N/A   Clear
3:35 AM 35.6 °F - 35.6 °F 100% 30.18 in 10.0 mi Calm Calm - N/A   Scattered Clouds
3:55 AM 35.6 °F - 35.6 °F 100% 30.17 in 10.0 mi Calm Calm - N/A   Scattered Clouds
4:15 AM 37.4 °F - 35.6 °F 93% 30.18 in 10.0 mi Calm Calm - N/A   Clear
4:35 AM 37.4 °F - 33.8 °F 87% 30.18 in 10.0 mi Calm Calm - N/A   Clear
4:56 AM 35.6 °F - 33.8 °F 93% 30.18 in 10.0 mi Calm Calm - N/A   Clear
5:15 AM 35.6 °F - 35.6 °F 100% 30.19 in 10.0 mi Calm Calm - N/A   Clear
5:35 AM 35.6 °F 32.8 °F 33.8 °F 93% 30.19 in 10.0 mi WSW 3.5 mph - N/A   Clear
5:55 AM 35.6 °F 32.8 °F 33.8 °F 93% 30.20 in 10.0 mi WSW 3.5 mph - N/A   Clear
6:15 AM 35.6 °F - 33.8 °F 93% 30.20 in 10.0 mi Calm Calm - N/A   Clear
6:35 AM 33.8 °F - 33.8 °F 100% 30.20 in 10.0 mi Calm Calm - N/A   Clear
6:55 AM 33.8 °F - 33.8 °F 100% 30.20 in 10.0 mi Calm Calm - N/A   Scattered Clouds
7:16 AM 33.8 °F - 33.8 °F 100% 30.21 in 10.0 mi Calm Calm - N/A   Clear
7:35 AM 35.6 °F - 33.8 °F 93% 30.21 in 10.0 mi Calm Calm - N/A   Clear
7:55 AM 37.4 °F - 35.6 °F 93% 30.22 in 10.0 mi Calm Calm - N/A   Clear
8:15 AM 39.2 °F - 37.4 °F 93% 30.22 in 10.0 mi Calm Calm - N/A   Clear
8:35 AM 44.6 °F - 37.4 °F 76% 30.22 in 10.0 mi Calm Calm - N/A   Clear
8:55 AM 48.2 °F - 37.4 °F 66% 30.22 in 10.0 mi Calm Calm - N/A   Clear
9:15 AM 53.6 °F - 35.6 °F 51% 30.22 in 10.0 mi Calm Calm - N/A   Clear
9:35 AM 55.4 °F - 32.0 °F 41% 30.22 in 10.0 mi Calm Calm - N/A   Clear
9:57 AM 59.0 °F - 30.2 °F 34% 30.22 in 10.0 mi WNW 3.5 mph - N/A   Clear
10:15 AM 60.8 °F - 32.0 °F 34% 30.22 in 10.0 mi West 4.6 mph - N/A   Clear
10:35 AM 60.8 °F - 33.8 °F 36% 30.22 in 10.0 mi Calm Calm - N/A   Clear
10:55 AM 62.6 °F - 33.8 °F 34% 30.21 in 10.0 mi West 4.6 mph - N/A   Clear
11:15 AM 66.2 °F - 32.0 °F 28% 30.21 in 10.0 mi West 6.9 mph - N/A   Clear
11:35 AM 66.2 °F - 30.2 °F 26% 30.20 in 10.0 mi Calm Calm - N/A   Clear
11:55 AM 69.8 °F - 30.2 °F 23% 30.18 in 10.0 mi West 6.9 mph - N/A   Clear
12:16 PM 69.8 °F - 26.6 °F 20% 30.18 in 10.0 mi West 12.7 mph 19.6 mph N/A   Clear
12:35 PM 69.8 °F - 26.6 °F 20% 30.16 in 10.0 mi West 6.9 mph 17.3 mph N/A   Clear
12:55 PM 71.6 °F - 26.6 °F 19% 30.15 in 10.0 mi West 10.4 mph 19.6 mph N/A   Clear
1:15 PM 71.6 °F - 26.6 °F 19% 30.15 in 10.0 mi NW 8.1 mph - N/A   Clear
1:37 PM 71.6 °F - 26.6 °F 19% 30.14 in 10.0 mi West 5.8 mph 18.4 mph N/A   Clear
1:55 PM 71.6 °F - 26.6 °F 19% 30.14 in 10.0 mi WNW 11.5 mph 20.7 mph N/A   Clear
2:15 PM 71.6 °F - 26.6 °F 19% 30.13 in 10.0 mi WNW 5.8 mph 17.3 mph N/A   Clear
2:35 PM 71.6 °F - 24.8 °F 17% 30.12 in 10.0 mi West 9.2 mph 20.7 mph N/A   Clear
2:55 PM 71.6 °F - 23.0 °F 16% 30.12 in 10.0 mi West 11.5 mph 19.6 mph N/A   Clear
3:15 PM 71.6 °F - 21.2 °F 15% 30.12 in 10.0 mi West 12.7 mph 23.0 mph N/A   Clear
3:35 PM 71.6 °F - 23.0 °F 16% 30.12 in 10.0 mi West 8.1 mph 23.0 mph N/A   Clear
3:56 PM 71.6 °F - 23.0 °F 16% 30.12 in 10.0 mi West 5.8 mph - N/A   Clear
4:15 PM 69.8 °F - 23.0 °F 17% 30.13 in 10.0 mi West 5.8 mph 18.4 mph N/A   Clear
4:35 PM 69.8 °F - 24.8 °F 18% 30.13 in 10.0 mi WNW 3.5 mph - N/A   Clear
4:55 PM 68.0 °F - 24.8 °F 20% 30.14 in 10.0 mi WNW 6.9 mph - N/A   Clear
5:15 PM 66.2 °F - 26.6 °F 23% 30.14 in 10.0 mi WNW 3.5 mph - N/A   Clear
5:35 PM 64.4 °F - 26.6 °F 24% 30.15 in 10.0 mi WNW 3.5 mph - N/A   Clear
5:55 PM 62.6 °F - 26.6 °F 26% 30.16 in 10.0 mi Calm Calm - N/A   Clear
6:17 PM 60.8 °F - 28.4 °F 29% 30.17 in 10.0 mi Calm Calm - N/A   Clear
6:35 PM 57.2 °F - 28.4 °F 33% 30.18 in 10.0 mi NW 3.5 mph - N/A   Clear
6:55 PM 57.2 °F - 26.6 °F 31% 30.18 in 10.0 mi Calm Calm - N/A   Clear
7:15 PM 53.6 °F - 28.4 °F 38% 30.19 in 10.0 mi West 6.9 mph - N/A   Clear
7:35 PM 57.2 °F - 26.6 °F 31% 30.19 in 10.0 mi WNW 3.5 mph - N/A   Clear
7:55 PM 55.4 °F - 26.6 °F 33% 30.19 in 10.0 mi Calm Calm - N/A   Clear
8:15 PM 53.6 °F - 26.6 °F 35% 30.20 in 10.0 mi NNW 4.6 mph - N/A   Clear
8:35 PM 55.4 °F - 26.6 °F 33% 30.20 in 10.0 mi WNW 3.5 mph - N/A   Clear
8:55 PM 53.6 °F - 28.4 °F 38% 30.20 in 10.0 mi Calm Calm - N/A   Clear
9:16 PM 48.2 °F - 28.4 °F 46% 30.21 in 10.0 mi Calm Calm - N/A   Clear
9:35 PM 48.2 °F - 28.4 °F 46% 30.21 in 10.0 mi Calm Calm - N/A   Clear
9:57 PM 42.8 °F - 30.2 °F 61% 30.22 in 10.0 mi Calm Calm - N/A   Clear
10:15 PM 42.8 °F - 32.0 °F 66% 30.23 in 10.0 mi Calm Calm - N/A   Clear
10:35 PM 42.8 °F - 30.2 °F 61% 30.23 in 10.0 mi Calm Calm - N/A   Clear
10:55 PM 42.8 °F - 30.2 °F 61% 30.23 in 10.0 mi Calm Calm - N/A   Clear
11:15 PM 46.4 °F 43.5 °F 30.2 °F 53% 30.24 in 10.0 mi North 5.8 mph - N/A   Clear
11:35 PM 48.2 °F - 28.4 °F 46% 30.24 in 10.0 mi North 6.9 mph - N/A   Clear
11:55 PM 50.0 °F - 24.8 °F 37% 30.24 in 10.0 mi North 8.1 mph - N/A   Clear